Change the Weather History Date:

Saturday, August 9, 2014

  Actual Average Record
Temperature  
Mean Temperature 82 °F -  
Max Temperature 93 °F 88 °F 96 °F (2007)
Min Temperature 71 °F 70 °F 64 °F (2002)
Cooling Degree Days 17    
Growing Degree Days 32 (Base 50)    
Moisture  
Dew Point 59 °F    
Average Humidity 42    
Maximum Humidity 59    
Minimum Humidity 14    
Precipitation  
Precipitation 0.00 in - - ()
Sea Level Pressure  
Sea Level Pressure 30.04 in    
Wind  
Wind Speed 2 mph (SW)    
Max Wind Speed 12 mph    
Max Gust Speed -    
Visibility 10 miles    
Events      
Averages and records for this station are not official NWS values.
T = Trace of Precipitation, MM = Missing Value Source: NWS Daily Summary

Daily Weather History Graph

Daily Weather History Graph

Search for Another Location

Airport or City:

Trip Planner

Search our weather history database for the weather conditions in past years. The results will help you decide how hot, cold, wet, or windy it might be!

Date:

Astronomy

Aug. 09, 2014 Rise Set
Actual Time 6:54 AM EDT 8:14 PM EDT
Civil Twilight 6:28 AM EDT 8:39 PM EDT
Nautical Twilight 5:58 AM EDT 9:09 PM EDT
Astronomical Twilight 5:27 AM EDT 9:40 PM EDT
Moon 7:16 PM EDT (8/9) 5:33 AM EDT (8/9)
Length of Visible Light 14h 10m
Length of Day
13h 20m
Waxing Gibbous, 98% of the Moon is Illuminated
Aug 9
Waxing Gibbous
Aug 10
Full
Aug 17
Last Quarter
Aug 25
New
Sep 2
First Quarter

Hourly Weather History & Observations

Time (EDT) Temp. Heat Index Dew Point Humidity Pressure Visibility Wind Dir Wind Speed Gust Speed Precip Events Conditions
12:15 AM 73.4 °F - - N/A% 30.05 in 10.0 mi Calm Calm - N/A   Clear
12:35 AM 73.4 °F - - N/A% 30.05 in 10.0 mi Calm Calm - N/A   Clear
1:15 AM 73.4 °F - - N/A% 30.05 in 10.0 mi Calm Calm - N/A   Clear
1:35 AM 73.4 °F - - N/A% 30.05 in 10.0 mi Calm Calm - N/A   Clear
1:55 AM 73.4 °F - - N/A% 30.05 in 10.0 mi Calm Calm - N/A   Clear
2:15 AM 71.6 °F - - N/A% 30.04 in 10.0 mi Calm Calm - N/A   Clear
2:35 AM 71.6 °F - - N/A% 30.04 in 10.0 mi Calm Calm - N/A   Clear
2:55 AM 71.6 °F - - N/A% 30.03 in 10.0 mi Calm Calm - N/A   Clear
3:15 AM 71.6 °F - - N/A% 30.02 in 10.0 mi Calm Calm - N/A   Clear
3:35 AM 71.6 °F - - N/A% 30.02 in 10.0 mi Calm Calm - N/A   Clear
3:55 AM 71.6 °F - - N/A% 30.02 in 10.0 mi Calm Calm - N/A   Clear
4:15 AM 71.6 °F - - N/A% 30.01 in 10.0 mi Calm Calm - N/A   Clear
4:35 AM 71.6 °F - - N/A% 30.01 in 10.0 mi Calm Calm - N/A   Clear
4:55 AM 71.6 °F - - N/A% 30.01 in 10.0 mi SSW 3.5 mph - N/A   Clear
5:15 AM 71.6 °F - - N/A% 30.02 in 10.0 mi Calm Calm - N/A   Clear
5:35 AM 71.6 °F - - N/A% 30.02 in 10.0 mi Calm Calm - N/A   Clear
5:55 AM 71.6 °F - - N/A% 30.02 in 10.0 mi SSW 3.5 mph - N/A   Clear
6:15 AM 71.6 °F - - N/A% 30.03 in 10.0 mi Calm Calm - N/A   Clear
6:35 AM 71.6 °F - - N/A% 30.03 in 10.0 mi SSW 3.5 mph - N/A   Clear
8:50 AM 77.0 °F - 32.0 °F 19% 30.08 in 10.0 mi South 6.9 mph - N/A   Clear
9:50 AM 84.2 °F - 32.0 °F 15% 30.09 in 10.0 mi SSW 4.6 mph - N/A   Clear
11:50 AM 87.8 °F - 32.0 °F 14% 30.08 in 10.0 mi NW 11.5 mph - N/A   Mostly Cloudy
12:50 PM 87.8 °F 92.6 °F 69.8 °F 55% 30.07 in 10.0 mi WSW 9.2 mph - N/A   Scattered Clouds
1:50 PM 89.6 °F 96.2 °F 71.6 °F 55% 30.07 in 10.0 mi SW 8.1 mph - N/A   Scattered Clouds
3:50 PM 89.6 °F 98.2 °F 73.4 °F 59% 30.01 in 10.0 mi SW 9.2 mph - N/A   Scattered Clouds
4:50 PM 91.4 °F 98.4 °F 71.6 °F 52% 29.99 in 10.0 mi WSW 11.5 mph - N/A   Scattered Clouds
5:50 PM 93.2 °F 102.4 °F 73.4 °F 52% 29.99 in 10.0 mi West 10.4 mph - N/A   Scattered Clouds
6:50 PM 91.4 °F 100.1 °F 73.4 °F 55% 29.99 in 10.0 mi SW 11.5 mph - N/A   Scattered Clouds
7:55 PM 84.2 °F - - N/A% 30.02 in 10.0 mi WSW 8.1 mph - N/A   Clear
8:15 PM 84.2 °F - - N/A% 30.02 in 10.0 mi Calm Calm - N/A   Clear
8:35 PM 82.4 °F - - N/A% 30.04 in 10.0 mi West 4.6 mph - N/A   Clear
8:55 PM 82.4 °F - - N/A% 30.04 in 10.0 mi Calm Calm - N/A   Clear
9:15 PM 82.4 °F - - N/A% 30.04 in 10.0 mi Calm Calm - N/A   Clear
9:55 PM 80.6 °F - - N/A% 30.04 in 10.0 mi Calm Calm - N/A   Clear
10:15 PM 78.8 °F - - N/A% 30.04 in 10.0 mi Calm Calm - N/A   Clear
10:35 PM 78.8 °F - - N/A% 30.05 in 10.0 mi Calm Calm - N/A   Clear
10:55 PM 78.8 °F - - N/A% 30.05 in 10.0 mi Calm Calm - N/A   Clear
11:35 PM 78.8 °F - - N/A% 30.05 in 10.0 mi South 3.5 mph - N/A   Clear
11:55 PM 78.8 °F - - N/A% 30.05 in 10.0 mi Calm Calm - N/A   Clear